EW6098 Weather Reports


Display with metric or nautical units.
time (UTC)temp
F
wind
direction
speed
MPH
gust
MPH
rain 1hr
in
rain 24hr
in
rain mn
in
humidity
%
barometer
mb
20260506131523 51 64 1.0 3.0 0.00 0.00 0.00 55 1016.1
20260506130532 52 236 1.0 3.0 0.00 0.00 0.00 55 1016.2
20260506125521 52 357 0.0 2.0 0.00 0.00 0.00 54 1016.2
20260506124530 52 356 1.0 2.0 0.00 0.00 0.00 54 1016.2
20260506123538 52 341 1.0 2.0 0.00 0.00 0.00 53 1016.3
20260506122527 53 299 2.0 4.0 0.00 0.00 0.00 54 1016.3
20260506121515 55 325 1.0 2.0 0.00 0.00 0.00 52 1016.2
20260506120524 55 282 2.0 4.0 0.00 0.00 0.00 51 1016.3
20260506115533 55 322 1.0 2.0 0.00 0.00 0.00 53 1016.3
20260506114520 54 266 1.0 4.0 0.00 0.00 0.00 54 1016.4
20260506113548 53 293 1.0 2.0 0.00 0.00 0.00 54 1016.6
20260506112535 54 301 1.0 3.0 0.00 0.00 0.00 52 1016.5
20260506111523 52 317 1.0 2.0 0.00 0.00 0.00 54 1016.7
20260506110551 51 44 1.0 3.0 0.00 0.00 0.00 55 1016.7
20260506105520 52 315 1.0 2.0 0.00 0.00 0.00 57 1016.8
20260506104528 53 332 1.0 3.0 0.00 0.00 0.00 55 1016.8
20260506103643 53 336 0.0 3.0 0.00 0.00 0.00 55 1016.7
20260506102526 54 331 1.0 4.0 0.00 0.00 0.00 54 1016.8
20260506101535 54 3 1.0 2.0 0.00 0.00 0.00 52 1016.8
20260506100524 53 303 1.0 2.0 0.00 0.00 0.00 53 1016.8
20260506095533 54 336 1.0 4.0 0.00 0.00 0.00 54 1016.9
20260506094522 54 27 1.0 3.0 0.00 0.00 0.00 53 1017.1
20260506093531 51 350 1.0 3.0 0.00 0.00 0.00 57 1017.1
20260506092519 50 358 1.0 2.0 0.00 0.00 0.00 58 1017.2
20260506091548 51 360 1.0 3.0 0.00 0.00 0.00 56 1017.2
20260506090557 51 12 1.0 2.0 0.00 0.00 0.00 57 1017.3
20260506085546 50 349 1.0 2.0 0.00 0.00 0.00 57 1017.4
20260506084535 50 354 1.0 3.0 0.00 0.00 0.00 58 1017.5
20260506083524 51 349 1.0 3.0 0.00 0.00 0.00 57 1017.6
20260506082533 52 27 1.0 2.0 0.00 0.00 0.00 55 1017.6
20260506081521 50 352 1.0 2.0 0.00 0.00 0.00 61 1017.6
20260506080530 51 306 0.0 2.0 0.00 0.00 0.00 61 1017.6
20260506073516 49 339 0.0 1.0 0.00 0.00 0.00 64 1017.6
20260506072525 48 321 0.0 1.0 0.00 0.00 0.00 71 1017.6
20260506071555 47 54 0.0 2.0 0.00 0.00 0.00 74 1017.6
20260506070523 45 0.0 0.0 0.00 0.00 0.00 79 1017.6
20260506061526 38 0.0 0.0 0.00 0.00 0.00 92 1017.6
20260506060535 37 0.0 0.0 0.00 0.00 0.00 93 1017.6
20260506050525 35 0.0 0.0 0.00 0.00 0.00 93 1017.7
20260506044522 34 0.0 0.0 0.00 0.00 0.00 93 1017.7
20260506043551 34 0.0 0.0 0.00 0.00 0.00 92 1017.5
20260506042520 34 0.0 0.0 0.00 0.00 0.00 92 1017.5
20260506041529 34 0.0 0.0 0.00 0.00 0.00 91 1017.4
20260506040517 34 0.0 0.0 0.00 0.00 0.00 91 1017.6
20260506035526 34 0.0 0.0 0.00 0.00 0.00 91 1017.6
20260506034534 35 0.0 0.0 0.00 0.00 0.00 91 1017.6
20260506033542 35 0.0 0.0 0.00 0.00 0.00 91 1017.6
20260506032531 34 0.0 0.0 0.00 0.00 0.00 91 1017.6
20260506031519 34 0.0 0.0 0.00 0.00 0.00 90 1017.7
20260506030528 34 0.0 0.0 0.00 0.00 0.00 90 1017.8
20260506025517 34 0.0 0.0 0.00 0.00 0.00 89 1017.7
20260506024525 35 0.0 0.0 0.00 0.00 0.00 89 1017.8
20260506023534 35 0.0 0.0 0.00 0.00 0.00 89 1017.8
20260506022523 35 0.0 0.0 0.00 0.00 0.00 89 1017.7
20260506021551 35 0.0 0.0 0.00 0.00 0.00 88 1017.8
20260506020519 35 0.0 0.0 0.00 0.00 0.00 87 1017.9
20260506015528 36 0.0 0.0 0.00 0.00 0.00 86 1017.8
20260506014516 36 0.0 0.0 0.00 0.00 0.00 85 1018.0
20260506013525 37 349 0.0 1.0 0.00 0.00 0.00 86 1017.9
20260506012534 37 353 1.0 1.0 0.00 0.00 0.00 87 1018.2
20260506011523 36 0.0 0.0 0.00 0.00 0.00 88 1018.1
20260506010532 37 0.0 0.0 0.00 0.00 0.00 88 1018.2
20260506005520 37 0.0 0.0 0.00 0.00 0.00 88 1018.2
20260506004528 37 0.0 0.0 0.00 0.00 0.00 88 1018.2
20260506003517 37 0.0 0.0 0.00 0.00 0.00 88 1018.4
20260506002526 37 0.0 0.0 0.00 0.00 0.00 87 1018.3
20260506001535 37 0.0 0.0 0.00 0.00 0.00 87 1018.2
20260506000523 37 0.0 0.0 0.00 0.00 0.00 87 1018.3
20260505235532 37 0.0 0.0 0.00 0.00 0.00 87 1018.3
20260505234521 38 0.0 0.0 0.00 0.00 0.00 86 1018.3
20260505233531 38 0.0 0.0 0.00 0.00 0.00 86 1018.4
20260505232519 38 0.0 0.0 0.00 0.00 0.00 85 1018.3
20260505231526 39 0.0 0.0 0.00 0.00 0.00 84 1018.4
20260505230535 39 333 0.0 1.0 0.00 0.00 0.00 82 1018.5
20260505225523 40 0.0 0.0 0.00 0.00 0.00 82 1018.4
20260505224533 40 347 0.0 2.0 0.00 0.00 0.00 82 1018.5
20260505223521 40 0.0 0.0 0.00 0.00 0.00 81 1018.3
20260505222530 40 0.0 0.0 0.00 0.00 0.00 81 1018.4
20260505221519 41 0.0 0.0 0.00 0.00 0.00 80 1018.4
20260505220528 41 0.0 0.0 0.00 0.00 0.00 79 1018.6
20260505215516 41 356 0.0 1.0 0.00 0.00 0.00 78 1018.4
20260505214525 41 0.0 0.0 0.00 0.00 0.00 78 1018.6
20260505213534 41 0.0 0.0 0.00 0.00 0.00 77 1018.3
20260505212523 42 0.0 0.0 0.00 0.00 0.00 77 1018.5
20260505211531 41 0.0 0.0 0.00 0.00 0.00 77 1018.4
20260505210520 42 0.0 0.0 0.00 0.00 0.00 77 1018.5
20260505205529 42 0.0 0.0 0.00 0.00 0.00 77 1018.6
20260505204517 42 0.0 0.0 0.00 0.00 0.00 77 1018.5
20260505203526 42 0.0 0.0 0.00 0.00 0.00 77 1018.4
20260505202534 43 0.0 0.0 0.00 0.00 0.00 75 1018.4
20260505201543 43 50 0.0 2.0 0.00 0.00 0.00 74 1018.4
20260505200532 43 13 1.0 2.0 0.00 0.00 0.00 72 1018.3
20260505195521 43 135 0.0 2.0 0.00 0.00 0.00 72 1018.4
20260505194531 44 2 1.0 2.0 0.00 0.00 0.00 71 1018.4
20260505193519 44 9 1.0 2.0 0.00 0.00 0.00 70 1018.4
20260505192528 44 61 1.0 2.0 0.00 0.00 0.00 72 1018.1
20260505191516 44 43 1.0 3.0 0.00 0.00 0.00 70 1018.1
20260505190546 44 355 1.0 3.0 0.00 0.00 0.00 69 1018.1
20260505185533 45 355 1.0 4.0 0.00 0.00 0.00 69 1018.0
20260505184522 45 124 1.0 4.0 0.00 0.00 0.00 68 1017.9
20260505183531 45 313 2.0 7.0 0.00 0.00 0.00 68 1017.9
20260505182539 45 18 1.0 3.0 0.00 0.00 0.00 70 1018.0
20260505181529 45 353 1.0 2.0 0.00 0.00 0.00 70 1017.9
20260505180517 45 12 1.0 3.0 0.00 0.00 0.00 69 1018.0
20260505175546 45 118 2.0 6.0 0.00 0.00 0.00 69 1018.0
20260505174535 46 69 2.0 6.0 0.00 0.00 0.00 70 1018.0
20260505173624 46 54 2.0 4.0 0.00 0.00 0.00 69 1018.0
20260505172532 46 26 1.0 3.0 0.00 0.00 0.00 69 1018.0
20260505171521 46 325 1.0 6.0 0.00 0.00 0.00 68 1018.0
20260505170530 46 108 2.0 4.0 0.00 0.00 0.00 69 1017.9
20260505165538 46 298 2.0 6.0 0.00 0.00 0.00 69 1017.9
20260505164527 46 55 2.0 7.0 0.00 0.00 0.00 70 1017.9
20260505163516 46 311 2.0 4.0 0.00 0.00 0.00 69 1017.9
20260505162525 47 6 1.0 3.0 0.00 0.00 0.00 69 1017.8
20260505161535 47 287 1.0 4.0 0.00 0.00 0.00 67 1017.6
20260505160523 47 72 1.0 4.0 0.00 0.00 0.00 68 1017.7
20260505152518 47 137 2.0 9.0 0.00 0.00 0.00 71 1017.7
20260505151548 47 153 2.0 4.0 0.00 0.00 0.00 73 1017.6
20260505150536 47 162 2.0 6.0 0.00 0.00 0.00 73 1017.7
20260505140527 48 201 3.0 8.0 0.00 0.00 0.00 74 1017.4